User: anonymous   Login
Location: Bangkok
(13.7500°N, 100.5170°E)
Time: 00:24:02
(UTC+07:00)
Language:

ERBS - Orbit

View from above orbital plane
View from above orbital plane
View from above satellite
View from above satellite

Ground track
Ground track

The orbit data is extracted from the following two-line orbital elements,

1 15354U 84108B   17174.93292087 +.00002117 +00000-0 +54932-4 0  9997
2 15354 057.0084 109.3414 0016140 108.4023 251.8788 15.43692339798970
Epoch (UTC): 23 June 2017 22:23:24
Eccentricity: 0.0016140
inclination: 57.0084°
perigee height: 424 km
apogee height: 446 km
right ascension of ascending node: 109.3414°
argument of perigee: 108.4023°
revolutions per day: 15.43692339
mean anomaly at epoch: 251.8788°
orbit number at epoch: 79897

The dashed part of the orbit path shows where the satellite is in the earth's shadow,  

DLR